When you browse on this site, cookies collect data to enhance your experience and personalize the content and advertising you see.
Visit our Privacy Policy to learn more. By continuing to use the site, you agree to this use of cookies and data.
EN

Hourly Weather Serednii Horb

Today, 12 August, Wednesday

Time Temperature Precipitation Wind Pressure Humidity
00:00 +17°C° 0 mm 2 mps 732 mmHg 91%
01:00 +16°C° 0 mm 2 mps 732 mmHg 92%
02:00 +16°C° 0 mm 1 mps 733 mmHg 94%
03:00 +15°C° 0 mm 1 mps 733 mmHg 94%
04:00 +15°C° 0 mm 1 mps 733 mmHg 95%
05:00 +15°C° 0 mm 1 mps 733 mmHg 95%
06:00 +16°C° 0 mm 2 mps 733 mmHg 92%
07:00 +17°C° 0 mm 2 mps 733 mmHg 89%
08:00 +18°C° 0 mm 2 mps 733 mmHg 85%
09:00 +19°C° 0 mm 2 mps 734 mmHg 78%
10:00 +20°C° 0 mm 3 mps 734 mmHg 72%
11:00 +21°C° 0 mm 3 mps 734 mmHg 65%
12:00 +22°C° 0 mm 3 mps 734 mmHg 62%
13:00 +22°C° 0 mm 3 mps 734 mmHg 60%
14:00 +24°C° 0 mm 3 mps 734 mmHg 57%
15:00 +22°C° 0 mm 3 mps 734 mmHg 60%
16:00 +22°C° 0 mm 3 mps 734 mmHg 62%
17:00 +21°C° 0 mm 3 mps 734 mmHg 64%
18:00 +20°C° 0 mm 3 mps 734 mmHg 70%
19:00 +18°C° 0 mm 2 mps 734 mmHg 75%
20:00 +16°C° 0 mm 2 mps 734 mmHg 81%
21:00 +16°C° 0 mm 2 mps 734 mmHg 83%
22:00 +15°C° 0 mm 2 mps 734 mmHg 84%
23:00 +14°C° 0 mm 2 mps 734 mmHg 86%

Tomorrow, 13 August, Thursday

Time Temperature Precipitation Wind Pressure Humidity
00:00 +14°C° 0 mm 1 mps 734 mmHg 86%
01:00 +13°C° 0 mm 1 mps 734 mmHg 87%
02:00 +13°C° 0 mm 1 mps 734 mmHg 88%
03:00 +13°C° 0 mm 1 mps 733 mmHg 89%
04:00 +12°C° 0 mm 1 mps 733 mmHg 89%
05:00 +12°C° 0 mm 1 mps 733 mmHg 90%
06:00 +13°C° 0 mm 1 mps 733 mmHg 85%
07:00 +15°C° 0 mm 1 mps 733 mmHg 80%
08:00 +18°C° 0 mm 1 mps 734 mmHg 75%
09:00 +19°C° 0 mm 1 mps 734 mmHg 70%
10:00 +19°C° 0 mm 2 mps 733 mmHg 65%
11:00 +21°C° 0 mm 2 mps 733 mmHg 60%
12:00 +21°C° 0 mm 2 mps 733 mmHg 58%
13:00 +23°C° 0 mm 2 mps 733 mmHg 56%
14:00 +23°C° 0 mm 2 mps 733 mmHg 55%
15:00 +23°C° 0 mm 2 mps 732 mmHg 56%
16:00 +23°C° 0 mm 2 mps 732 mmHg 58%
17:00 +23°C° 0 mm 2 mps 732 mmHg 60%
18:00 +20°C° 0 mm 2 mps 732 mmHg 66%
19:00 +18°C° 0 mm 2 mps 732 mmHg 72%
20:00 +16°C° 0 mm 2 mps 732 mmHg 78%
21:00 +16°C° 0 mm 2 mps 732 mmHg 79%
22:00 +15°C° 0 mm 2 mps 732 mmHg 80%
23:00 +15°C° 0 mm 2 mps 732 mmHg 81%

Day after tomorrow, 14 August, Friday

Time Temperature Precipitation Wind Pressure Humidity
00:00 +14°C° 0 mm 2 mps 732 mmHg 82%
01:00 +14°C° 0 mm 2 mps 732 mmHg 83%
02:00 +13°C° 0 mm 1 mps 732 mmHg 84%
03:00 +13°C° 0 mm 1 mps 732 mmHg 85%
04:00 +13°C° 0 mm 1 mps 732 mmHg 87%
05:00 +12°C° 0 mm 1 mps 731 mmHg 88%
06:00 +14°C° 0 mm 2 mps 732 mmHg 84%
07:00 +15°C° 0 mm 2 mps 732 mmHg 80%
08:00 +17°C° 0 mm 2 mps 732 mmHg 76%
09:00 +18°C° 0 mm 2 mps 732 mmHg 71%
10:00 +20°C° 0 mm 3 mps 732 mmHg 66%
11:00 +21°C° 0 mm 3 mps 733 mmHg 62%
12:00 +22°C° 0 mm 3 mps 732 mmHg 60%
13:00 +22°C° 0 mm 3 mps 732 mmHg 59%
14:00 +23°C° 0 mm 4 mps 732 mmHg 57%
15:00 +22°C° 0 mm 4 mps 732 mmHg 59%
16:00 +22°C° 0 mm 4 mps 731 mmHg 61%
17:00 +22°C° 0 mm 4 mps 731 mmHg 62%
18:00 +20°C° 0 mm 4 mps 731 mmHg 69%
19:00 +18°C° 0 mm 3 mps 731 mmHg 76%
20:00 +17°C° 0 mm 3 mps 731 mmHg 83%
21:00 +16°C° 0 mm 3 mps 731 mmHg 83%
22:00 +14°C° 0 mm 3 mps 732 mmHg 84%
23:00 +13°C° 0 mm 3 mps 732 mmHg 84%

15 August, Saturday

Time Temperature Precipitation Wind Pressure Humidity
00:00 +13°C° 0 mm 3 mps 732 mmHg 83%
01:00 +13°C° 0 mm 3 mps 732 mmHg 83%
02:00 +13°C° 0 mm 3 mps 732 mmHg 82%
03:00 +12°C° 0 mm 3 mps 731 mmHg 81%
04:00 +12°C° 0 mm 3 mps 731 mmHg 81%
05:00 +12°C° 0 mm 3 mps 731 mmHg 80%
06:00 +13°C° 0 mm 4 mps 731 mmHg 78%
07:00 +14°C° 0 mm 4 mps 731 mmHg 75%
08:00 +15°C° 0 mm 5 mps 732 mmHg 73%
09:00 +17°C° 0 mm 5 mps 732 mmHg 69%
10:00 +19°C° 0 mm 5 mps 732 mmHg 66%
11:00 +20°C° 0 mm 6 mps 732 mmHg 63%
12:00 +21°C° 0 mm 6 mps 732 mmHg 62%
13:00 +21°C° 0 mm 6 mps 732 mmHg 61%
14:00 +22°C° 0 mm 6 mps 732 mmHg 59%
15:00 +22°C° 0 mm 5 mps 732 mmHg 61%
16:00 +22°C° 0 mm 5 mps 732 mmHg 63%
17:00 +21°C° 0 mm 5 mps 732 mmHg 64%
18:00 +20°C° 0 mm 5 mps 732 mmHg 69%
19:00 +18°C° 0 mm 4 mps 732 mmHg 74%
20:00 +17°C° 0 mm 4 mps 732 mmHg 79%
21:00 +15°C° 0 mm 4 mps 732 mmHg 78%
22:00 +14°C° 0 mm 4 mps 732 mmHg 78%
23:00 +14°C° 0 mm 4 mps 732 mmHg 77%

16 August, Sunday

Time Temperature Precipitation Wind Pressure Humidity
00:00 +13°C° 0 mm 4 mps 732 mmHg 78%
01:00 +13°C° 0 mm 4 mps 732 mmHg 78%
02:00 +12°C° 0 mm 4 mps 732 mmHg 79%
03:00 +12°C° 0 mm 3 mps 732 mmHg 79%
04:00 +12°C° 0 mm 3 mps 732 mmHg 79%
05:00 +11°C° 0 mm 3 mps 732 mmHg 79%
06:00 +13°C° 0 mm 3 mps 732 mmHg 75%
07:00 +14°C° 0 mm 4 mps 732 mmHg 72%
08:00 +15°C° 0 mm 4 mps 733 mmHg 69%
09:00 +18°C° 0 mm 4 mps 733 mmHg 65%
10:00 +20°C° 0 mm 5 mps 733 mmHg 61%
11:00 +21°C° 0 mm 5 mps 733 mmHg 57%
12:00 +22°C° 0 mm 5 mps 733 mmHg 56%
13:00 +23°C° 0 mm 5 mps 733 mmHg 55%
14:00 +23°C° 0 mm 5 mps 733 mmHg 54%
15:00 +23°C° 0 mm 5 mps 733 mmHg 56%
16:00 +23°C° 0 mm 5 mps 733 mmHg 58%
17:00 +22°C° 0 mm 4 mps 732 mmHg 60%
18:00 +21°C° 0 mm 4 mps 732 mmHg 65%
19:00 +19°C° 0 mm 3 mps 732 mmHg 71%
20:00 +17°C° 0 mm 3 mps 732 mmHg 76%
21:00 +16°C° 0 mm 3 mps 732 mmHg 76%
22:00 +14°C° 0 mm 3 mps 733 mmHg 76%
23:00 +14°C° 0 mm 3 mps 733 mmHg 76%

17 August, Monday

Time Temperature Precipitation Wind Pressure Humidity
00:00 +13°C° 0 mm 3 mps 733 mmHg 76%
01:00 +13°C° 0 mm 3 mps 732 mmHg 75%
02:00 +12°C° 0 mm 3 mps 732 mmHg 74%
03:00 +12°C° 0 mm 3 mps 732 mmHg 75%
04:00 +12°C° 0 mm 3 mps 732 mmHg 75%
05:00 +12°C° 0 mm 2 mps 732 mmHg 75%
06:00 +13°C° 0 mm 3 mps 732 mmHg 73%
07:00 +14°C° 0 mm 3 mps 733 mmHg 70%
08:00 +17°C° 0 mm 3 mps 733 mmHg 67%
09:00 +19°C° 0 mm 4 mps 733 mmHg 63%
10:00 +21°C° 0 mm 4 mps 733 mmHg 59%
11:00 +22°C° 0 mm 4 mps 733 mmHg 55%
12:00 +23°C° 0 mm 4 mps 733 mmHg 52%
13:00 +25°C° 0 mm 4 mps 733 mmHg 50%
14:00 +26°C° 0 mm 4 mps 733 mmHg 47%
15:00 +26°C° 0 mm 4 mps 733 mmHg 50%
16:00 +26°C° 0 mm 4 mps 732 mmHg 54%
17:00 +25°C° 0 mm 4 mps 732 mmHg 57%
18:00 +22°C° 0 mm 3 mps 732 mmHg 62%
19:00 +20°C° 0 mm 3 mps 732 mmHg 67%
20:00 +18°C° 0 mm 3 mps 732 mmHg 72%
21:00 +18°C° 0 mm 3 mps 732 mmHg 72%
22:00 +17°C° 0 mm 3 mps 732 mmHg 71%
23:00 +16°C° 0 mm 3 mps 732 mmHg 70%
Show more